"Pseudo-MPEC" for X67272

Created 2019 May 17 15:07:27 UT using Find_Orb

Click here for an explanation of pseudo-MPECs

 
 Astrometry: 
     X67272   C2019 05 10WxO;AstrometryaoP:4xdredacted;I8pC2!o`[T3xYkC!otj'rsD29
     X67272   C2019 05 10B3BLclickNI:L3cd*aP_07@d$swIpSDwyhereppu*lGX;;^)%#g@D29
     X67272   C2019 05 10SLforPDexplanationFoHslKDyDhvC9l?C9@U.\m7;pX[J^eH+ZKD29

Station data:
(D29) Purple Mountain Observatory, XuYi Station  (N32.734366 E118.463900)
   China.  Observers H. B. Zhao, B. Li, G. Zhaori, R. Q. Hong, L. F. Hu.
   Measurers H. B. Zhao, B. Li. H. Lu, G. Zhaori. 1.04-m f/1.8 Schmidt + CCD.

Orbital elements:  X67272
   Perihelion 2019 Jun 15.052894 +/- 52.6 TT =  1:16:10 (JD 2458649.552894)
Epoch 2019 May 11.0 TT = JDT 2458614.5   Earth MOID: 0.2830   Ma: 0.0441
M 349.28229609 +/- 25               (J2000 ecliptic)          AutoNEOCP
n   0.30575803 +/- 0.295            Peri.  170.87982 +/- 80
a   2.18214765 +/- 1.4              Node    79.50282 +/- 59
e   0.4057853 +/- 0.251             Incl.    6.16308 +/- 5.7
P   3.22                   H 21.8   G  0.15   U 11.9  SR
q 1.29666414 +/- 0.568    Q 3.06763117 +/- 71.4
From 3 observations 2019 May 10 (61.1 min); mean residual 0".31
Residuals in arcseconds: 
190510 D29  .14+  .27+    190510 D29  .28-  .54-    190510 D29  .14+  .27+    

Ephemerides (geocentric):
Date (UTC) HH   RA              Dec         delta   r     elong  mag " sig PA
---- -- -- --  -------------   -----------  ------ ------ -----  --- ---- ---
2019 05 17 15  13 50 35.710   +01 23 45.59  .35699 1.3250 147.0 21.3 369'  43
2019 05 17 16  13 50 35.691   +01 23 02.33  .35697 1.3249 147.0 21.3 417'  42
2019 05 17 17  13 50 35.676   +01 22 19.01  .35696 1.3248 146.9 21.3 474'  40
2019 05 17 18  13 50 35.666   +01 21 35.63  .35694 1.3247 146.9 21.3 542'  37
2019 05 17 19  13 50 35.660   +01 20 52.19  .35693 1.3246 146.9 21.3 617'  33
2019 05 17 20  13 50 35.659   +01 20 08.69  .35691 1.3246 146.8 21.3 693'  29
2019 05 17 21  13 50 35.662   +01 19 25.14  .35690 1.3245 146.8 21.3 762'  26
2019 05 17 22  13 50 35.670   +01 18 41.52  .35689 1.3244 146.8 21.3 818'  23
2019 05 17 23  13 50 35.682   +01 17 57.84  .35687 1.3243 146.7 21.3 862'  20
2019 05 18 00  13 50 35.698   +01 17 14.11  .35686 1.3242 146.7 21.3 895'  18
2019 05 18 01  13 50 35.719   +01 16 30.31  .35685 1.3241 146.7 21.3 921'  16
2019 05 18 02  13 50 35.745   +01 15 46.46  .35683 1.3241 146.7 21.3 941'  15
2019 05 18 03  13 50 35.775   +01 15 02.54  .35682 1.3240 146.6 21.3 957'  14
2019 05 18 04  13 50 35.810   +01 14 18.57  .35681 1.3239 146.6 21.3 971'  13
2019 05 18 05  13 50 35.849   +01 13 34.54  .35679 1.3238 146.6 21.3 983'  12
2019 05 18 06  13 50 35.893   +01 12 50.45  .35678 1.3237 146.5 21.3 993'  11
2019 05 18 07  13 50 35.941   +01 12 06.30  .35677 1.3237 146.5 21.3  17d  11
2019 05 18 08  13 50 35.994   +01 11 22.09  .35676 1.3236 146.5 21.3  17d  10
2019 05 18 09  13 50 36.051   +01 10 37.82  .35675 1.3235 146.5 21.3  17d  10
2019 05 18 10  13 50 36.113   +01 09 53.49  .35673 1.3234 146.4 21.3  17d  10
2019 05 18 11  13 50 36.179   +01 09 09.11  .35672 1.3234 146.4 21.3  17d   9
2019 05 18 12  13 50 36.250   +01 08 24.66  .35671 1.3233 146.4 21.3  17d   9
2019 05 18 13  13 50 36.325   +01 07 40.16  .35670 1.3232 146.3 21.3  17d   9
2019 05 18 14  13 50 36.406   +01 06 55.60  .35669 1.3231 146.3 21.3  18d   9
2019 05 18 15  13 50 36.490   +01 06 10.98  .35668 1.3230 146.3 21.3  18d   9
2019 05 18 16  13 50 36.579   +01 05 26.30  .35667 1.3230 146.3 21.3  18d   9
2019 05 18 17  13 50 36.673   +01 04 41.56  .35666 1.3229 146.2 21.3  18d   9
2019 05 18 18  13 50 36.771   +01 03 56.76  .35665 1.3228 146.2 21.3  18d   9
2019 05 18 19  13 50 36.874   +01 03 11.91  .35663 1.3227 146.2 21.3  18d   9
2019 05 18 20  13 50 36.982   +01 02 27.00  .35662 1.3226 146.1 21.3  18d   9
2019 05 18 21  13 50 37.094   +01 01 42.03  .35661 1.3226 146.1 21.3  19d   9
2019 05 18 22  13 50 37.211   +01 00 57.00  .35661 1.3225 146.1 21.3  19d   9
2019 05 18 23  13 50 37.332   +01 00 11.91  .35660 1.3224 146.0 21.3  19d   9
2019 05 19 00  13 50 37.458   +00 59 26.77  .35659 1.3223 146.0 21.3  19d   9
2019 05 19 01  13 50 37.588   +00 58 41.56  .35658 1.3223 146.0 21.3  20d  10
2019 05 19 02  13 50 37.724   +00 57 56.30  .35657 1.3222 146.0 21.3  20d  10
2019 05 19 03  13 50 37.863   +00 57 10.99  .35656 1.3221 145.9 21.3  20d  10
2019 05 19 04  13 50 38.008   +00 56 25.61  .35655 1.3220 145.9 21.3  21d  10
2019 05 19 05  13 50 38.157   +00 55 40.17  .35654 1.3219 145.9 21.3  21d  10
2019 05 19 06  13 50 38.310   +00 54 54.68  .35653 1.3219 145.8 21.3  21d  10
2019 05 19 07  13 50 38.469   +00 54 09.13  .35652 1.3218 145.8 21.3  22d  10
2019 05 19 08  13 50 38.632   +00 53 23.53  .35652 1.3217 145.8 21.3  22d  10
2019 05 19 09  13 50 38.799   +00 52 37.86  .35651 1.3216 145.8 21.3  22d   9
2019 05 19 10  13 50 38.972   +00 51 52.14  .35650 1.3216 145.7 21.3  23d   9
2019 05 19 11  13 50 39.148   +00 51 06.36  .35649 1.3215 145.7 21.3  23d   9
2019 05 19 12  13 50 39.330   +00 50 20.52  .35649 1.3214 145.7 21.3  23d   9
2019 05 19 13  13 50 39.516   +00 49 34.63  .35648 1.3213 145.6 21.3  23d   9
2019 05 19 14  13 50 39.707   +00 48 48.68  .35647 1.3213 145.6 21.3  24d   8